Weather History for MMZC - October, 2012

Change the Weather History Date:

Monday, October 15, 2012

  Actual Average Record
Temperature  
Mean Temperature 68 °F -  
Max Temperature 78 °F 73 °F 109 °F (1997)
Min Temperature 57 °F 45 °F 37 °F (2010)
Cooling Degree Days 2    
Growing Degree Days 18 (Base 50)    
Moisture  
Dew Point 42 °F    
Average Humidity 46    
Maximum Humidity 82    
Minimum Humidity 23    
Precipitation  
Precipitation 0.00 in - - ()
Sea Level Pressure  
Sea Level Pressure 30.26 in    
Wind  
Wind Speed 8 mph ()    
Max Wind Speed 16 mph    
Max Gust Speed -    
Visibility 9.5 miles    
Events      
Averages and records for this station are not official NWS values.
T = Trace of Precipitation, MM = Missing Value Source: Averaged Metar Reports

Daily Weather History Graph

Daily Weather History Graph

Search for Another Location

Airport or City:

Trip Planner

Search our weather history database for the weather conditions in past years. The results will help you decide how hot, cold, wet, or windy it might be!

Date:

Astronomy

Oct. 15, 2012 Rise Set
Actual Time 7:47 AM CDT 7:24 PM CDT
Civil Twilight 7:25 AM CDT 7:47 PM CDT
Nautical Twilight 6:58 AM CDT 8:13 PM CDT
Astronomical Twilight 6:32 AM CDT 8:39 PM CDT
Moon 7:54 AM CDT (10/15) 7:35 PM CDT (10/15)
Length of Visible Light 12h 22m
Length of Day
11h 37m
New Moon, 0% of the Moon is Illuminated
Oct 15
New Moon
Oct 21
First Quarter
Oct 29
Full
Nov 6
Last Quarter
Nov 13
New

Hourly Weather History & Observations

Time (CDT) Temp. Dew Point Humidity Pressure Visibility Wind Dir Wind Speed Gust Speed Precip Events Conditions
12:41 AM 57.2 °F 50.0 °F 77% 30.31 in 10.0 mi North 8.1 mph - N/A   Scattered Clouds
1:41 AM 57.2 °F 51.8 °F 82% 30.30 in 10.0 mi NE 8.1 mph - N/A   Scattered Clouds
2:41 AM 59.0 °F 48.2 °F 67% 30.29 in 10.0 mi SSE 16.1 mph - N/A   Scattered Clouds
4:41 AM 57.2 °F 46.4 °F 67% 30.26 in 10.0 mi NNW 4.6 mph - N/A   Scattered Clouds
5:41 AM 57.2 °F 46.4 °F 67% 30.28 in 10.0 mi East 13.8 mph - N/A   Mostly Cloudy
8:03 AM 57.2 °F 46.4 °F 67% 30.30 in 8.0 mi East 5.8 mph - N/A   Mostly Cloudy
8:57 AM 57.2 °F 46.4 °F 67% 30.32 in 7.0 mi East 9.2 mph - N/A   Mostly Cloudy
9:40 AM 62.6 °F 46.4 °F 55% 30.32 in 7.0 mi ESE 9.2 mph - N/A   Mostly Cloudy
10:40 AM 64.4 °F 46.4 °F 52% 30.32 in 7.0 mi ESE 11.5 mph - N/A   Scattered Clouds
11:42 AM 66.2 °F 44.6 °F 46% 30.31 in 10.0 mi East 10.4 mph - N/A   Clear
1:06 PM 71.6 °F 44.6 °F 38% 30.28 in 10.0 mi ESE 9.2 mph - N/A   Clear
1:45 PM 75.2 °F 39.2 °F 27% 30.25 in 10.0 mi SSW 6.9 mph - N/A   Clear
2:40 PM 75.2 °F 39.2 °F 27% 30.23 in 10.0 mi SE 6.9 mph - N/A   Partly Cloudy
3:44 PM 78.8 °F 37.4 °F 23% 30.19 in 10.0 mi SW 13.8 mph - N/A   Scattered Clouds
4:42 PM 77.0 °F 37.4 °F 24% 30.18 in 10.0 mi SW 8.1 mph - N/A   Scattered Clouds
5:40 PM 75.2 °F 35.6 °F 24% 30.17 in 10.0 mi WSW 4.6 mph - N/A   Mostly Cloudy
6:42 PM 73.4 °F 35.6 °F 25% 30.17 in 10.0 mi ESE 5.8 mph - N/A   Mostly Cloudy
8:04 PM 68.0 °F 35.6 °F 30% 30.19 in 10.0 mi SE 6.9 mph - N/A   Overcast
8:43 PM 64.4 °F 35.6 °F 34% 30.20 in 10.0 mi SSE 5.8 mph - N/A   Overcast
9:50 PM 64.4 °F 37.4 °F 37% 30.24 in 10.0 mi ESE 5.8 mph - N/A   Overcast
10:46 PM 64.4 °F 35.6 °F 34% 30.26 in 10.0 mi SSE 3.5 mph - N/A   Mostly Cloudy
11:48 PM 60.8 °F 37.4 °F 42% 30.25 in 10.0 mi SW 8.1 mph - N/A   Scattered Clouds